Back to catalog

AAC-HSI-SAT2

AliveScienceSSO
NORAD 56995·PAYLOAD·🇬🇧 United Kingdom

Launched Jun 12, 2023 from Vandenberg Space Force Base

Loading…

Next Passes (next 24 hours)

TLE

FreshSource: Space-Track

Epoch: Sep 14, 2026, 13:40 UTC

1 56995U 23084BX  26257.57000272  .00002736  00000-0  12687-3 0  9991
2 56995  97.8377  51.2736 0010884 231.8636 128.1619 15.20948767179926

Track AAC-HSI-SAT2 in real time with AllMySat

Download on the App Store